Location: Arthez
(43.0833°N, 0.2500°W)
Time: 03:08:06
(UTC+00:00)

SL-8 R/B - Pass Details

Date: 23 October 2021
Orbit: 656 x 667 km, 48.4° (Epoch: 27 November)

Event Time Altitude Azimuth Distance (km) Brightness Sun altitude
Rises 18:56:35 0° 276° (W) 2,983 8.7 -20.9°
Reaches altitude 10° 18:59:01 10° 283° (WNW) 2,074 7.4 -21.4°
Maximum altitude 19:03:36 44° 356° (N) 915 4.4 -22.2°
Enters shadow 19:04:37 38° 29° (NNE) 1,003 4.4 -22.4°
